Location: Monroe
(41.9160°N, 83.3980°W)
Time: 16:19:51
(UTC-04:00)

Daily predictions for brighter satellites

Satellite Brightness Start Highest point End
(mag) Time Altitude Azimuth Time Altitude Azimuth Time Altitude Azimuth
FENGYUN 3A 3.9 21:22:09 10° S 21:27:30 77° WSW 21:32:56 10° NNW
H-2A R/B 3.3 21:26:06 10° S 21:30:01 66° WSW 21:33:59 10° NNW
PSLV R/B 4.5 21:28:49 10° SSW 21:31:48 26° SSE 21:34:49 10° E
ISS -1.3 21:31:23 10° SSE 21:32:24 11° SE 21:33:26 10° ESE
Cosmos 2285 Rocket 4.1 21:27:38 10° NNW 21:33:59 77° ENE 21:40:20 10° SSE
Cosmos 1461 3.6 21:34:00 10° NNW 21:38:10 44° NE 21:42:06 10° SE
Cosmos 494 Rocket 3.9 21:34:41 10° SSW 21:39:47 81° ESE 21:44:56 10° NNE
CZ-2C R/B 0.7 21:37:39 10° S 21:39:57 65° WSW 21:42:15 10° NNW
Cosmos 2058 Rocket 3.1 21:36:22 10° N 21:40:47 88° E 21:45:07 10° S
SPOT 5 3.4 21:36:48 10° SE 21:40:51 36° ENE 21:44:49 10° N
CZ-4 DEB 4.3 21:37:52 10° SSW 21:40:52 36° W 21:43:54 10° NNW
Cosmos 1464 Rocket 4.0 21:38:43 10° N 21:44:53 78° E 21:51:03 10° S
GEOS 3 Rocket 4.4 21:40:16 10° SSE 21:45:21 48° WSW 21:50:25 10° NW
Cosmos 1602 Rocket 4.0 21:42:32 10° SSE 21:46:45 42° E 21:51:00 10° NNE
CZ-4 SHROUD 3.9 21:46:45 11° SE 21:49:36 39° ENE 21:52:36 10° N
Cosmos 2237 Rocket 4.2 21:46:32 10° WSW 21:51:35 33° WNW 21:56:41 10° N
H-2A R/B 4.1 21:50:14 10° ENE 21:51:47 11° ENE 21:53:20 10° NE
Lacrosse 5 4.4 21:47:55 10° WNW 21:51:57 23° NNW 21:56:01 10° NNE
ALOS 3.7 21:48:31 10° SSW 21:52:50 38° W 21:57:12 10° NNW
Aureole 2 Rocket 2.5 21:49:49 10° SSW 21:53:47 79° ESE 21:57:24 10° NNE
deb Chang Zheng 4 3.7 21:49:26 10° NNE 21:53:51 86° WNW 21:58:13 10° SSW
Cosmos 1812 Rocket 4.2 21:52:49 10° N 21:56:56 38° ENE 22:00:27 13° SE
Cosmos 2278 Rocket 4.2 21:54:06 10° NW 21:58:40 25° WSW 22:03:14 10° SSW
SPOT 1/Viking Rocket 4.4 21:55:43 12° SE 21:59:52 34° ENE 22:04:28 10° N
Cosmos 2034 Rocket 4.0 21:57:04 10° N 22:03:28 81° E 22:09:48 10° S
Terra 3.9 22:01:38 10° E 22:03:39 13° ENE 22:05:40 10° NE
ATLAS CENTAUR R/B 4.2 22:04:15 10° WSW 22:08:32 27° NW 22:12:51 10° NNE
Atlas Centaur 2 3.7 22:02:35 10° SW 22:09:05 30° SSE 22:15:35 12° ESE
H-2A R/B 2.8 22:06:28 10° S 22:10:35 51° W 22:14:50 10° NNW
Meteor 1-15 Rocket 4.5 22:05:34 10° NNW 22:11:08 71° W 22:16:44 10° S
SeaSat 1 2.4 22:07:21 14° SSE 22:11:37 81° ENE 22:16:34 10° NNW
Cosmos 2369 Rocket 3.3 22:07:29 10° N 22:12:30 31° NE 22:16:29 14° ESE
Cosmos 1302 Rocket 4.3 22:08:57 10° NNW 22:14:09 66° WSW 22:19:13 11° S
DEBRIS 2.8 22:08:59 10° WNW 22:14:10 55° SW 22:15:33 23° SSE
ARGOS 3.9 22:10:34 15° SE 22:14:28 38° ENE 22:19:27 10° N
Cosmos 1666 3.4 22:12:21 10° NNW 22:16:11 54° W 22:19:58 10° S
CZ-4B R/B 3.7 22:12:52 10° NNE 22:17:49 51° E 22:22:51 10° S
PSLV R/B 3.2 22:16:10 16° S 22:18:30 78° W 22:21:37 10° NNW
SL-16 R/B 3.5 22:13:55 10° SW 22:19:17 43° WNW 22:24:40 10° NNE
Cosmos 1626 Rocket 3.6 22:15:21 10° S 22:19:48 83° W 22:24:15 10° N
Cosmos 1939 Rocket 3.7 22:17:58 10° S 22:22:00 51° W 22:26:05 10° NNW
Milstar 3 Cent rocket 4.2 22:22:14 10° WSW 22:25:11 13° SSW 22:27:40 10° S
COSMOS 2455 2.8 22:21:02 10° SSW 22:26:55 61° ESE 22:32:51 10° NE
Meteor 2-12 Rocket 4.4 22:21:48 10° N 22:27:54 70° E 22:32:34 18° SSE
Cosmos 2228 4.3 22:26:04 10° NNW 22:30:12 40° W 22:34:18 10° SSW
MetOp-B 4.1 22:28:01 16° SSE 22:32:20 89° WSW 22:37:44 10° NNW
Lacrosse 5 rocket 4.1 22:30:27 10° WNW 22:33:30 21° NNW 22:36:42 10° NNE
ATLAS 3B R/B 3.3 22:30:06 10° S 22:37:10 42° ESE 22:44:09 10° NE
Cosmos 1953 Rocket 4.3 22:35:33 25° SE 22:37:15 35° E 22:41:17 10° NNE
Cosmos 1515 3.6 22:43:53 21° S 22:46:22 88° E 22:50:15 10° N
Envisat 4.0 22:42:41 10° S 22:47:28 42° W 22:52:17 10° NNW
Cosmos 1066 Rocket 4.3 22:43:48 20° S 22:47:47 62° E 22:53:29 10° NNE
Cosmos 1603 4.1 22:42:32 10° SW 22:48:05 63° WNW 22:53:41 10° NNE
USA 234 3.3 22:45:49 23° SE 22:50:11 81° SW 22:56:48 10° NW
Abrixas rocket 4.0 22:48:11 10° W 22:50:49 21° SW 22:51:25 20° SSW
Cosmos 407 Rocket 4.0 22:49:25 27° SSE 22:51:36 40° ESE 22:56:29 10° NE
Cosmos 1346 Rocket 2.9 22:55:59 40° SE 22:56:59 52° E 23:00:49 10° NNE
Cosmos-2242 4.4 22:53:43 10° NNE 22:57:23 25° ENE 22:58:21 23° E
DELTA 2 DEB (DPAF) 4.2 22:56:14 34° SSE 22:58:07 68° ENE 23:02:36 10° N
Lacrosse 4 Rocket 1.8 22:59:12 37° ESE 22:59:18 37° ESE 23:03:05 10° NE
YAOGAN 6 3.5 23:02:20 26° SSW 23:04:04 45° W 23:07:42 10° NNW
USA 81 4.1 22:59:42 10° N 23:05:00 80° W 23:08:02 26° S
ISS -3.4 23:05:07 10° SW 23:08:23 85° NW 23:11:40 10° NE
BREEZE-M DEB (TANK) 3.0 23:05:47 10° WSW 23:08:44 42° NNW 23:09:51 21° NE
PSLV R/B 3.2 23:05:37 10° WSW 23:09:09 68° S 23:09:23 65° SE
Cosmos 1758 Rocket 3.5 23:10:06 42° SSE 23:11:28 68° E 23:15:50 10° NNE
CZ-4 R/B 4.1 23:06:38 10° N 23:11:37 72° WNW 23:15:27 17° SSW
Cosmos 1943 3.1 23:07:20 12° SSW 23:12:33 87° ESE 23:18:17 10° NNE
Cosmos 1842 3.9 23:13:32 37° E 23:13:33 37° E 23:17:12 10° NNE
Meteor 1-21 4.3 23:11:19 32° SSE 23:13:53 60° E 23:19:36 10° NNE
CARTOSAT-1 3.7 23:14:29 44° SE 23:15:35 61° ENE 23:19:52 10° N
Cosmos 1758 4.4 23:15:01 10° NNE 23:18:42 31° ENE 23:19:02 30° E
Cosmos 1943 Rocket 2.9 23:16:08 10° NNW 23:21:24 42° ENE 23:23:31 30° ESE
Spot 4 4.0 23:22:16 42° SE 23:23:33 57° ENE 23:28:15 10° N
Spot 2 4.4 23:19:22 10° NNE 23:24:06 61° ESE 23:25:25 45° SSE
Landsat 7 3.8 23:23:17 41° S 23:24:55 79° WSW 23:29:42 10° NNW
SL-08 RB Rocket 4.3 23:27:20 32° SSW 23:29:05 50° W 23:33:30 10° NNW
H-2A R/B 1.9 23:28:49 45° SSE 23:30:22 87° ENE 23:35:26 10° NNW
SAR-Lupe-2 3.4 23:30:47 74° SW 23:30:59 78° WSW 23:34:35 10° NNW
Cosmos 1766 3.2 23:29:50 10° N 23:33:51 82° W 23:34:21 67° SSW
Geosat 4.4 23:35:18 10° NNE 23:40:17 61° WNW 23:44:24 15° SW
Terra 1.8 23:39:33 51° S 23:40:44 79° WSW 23:45:30 10° NNW
Cosmos 1842 Rocket 4.3 23:37:17 10° N 23:41:21 37° ENE 23:41:34 37° E
Nadezhda 4 Rocket 4.1 23:45:01 43° SE 23:46:52 59° E 23:53:05 10° NNE
DMSP B5D2-2 4.1 23:46:15 10° N 23:51:34 79° WNW 23:53:28 41° SSW
CZ-4C R/B 4.3 23:54:52 12° E 23:54:52 12° E 23:55:51 10° ENE
